Time,TemperatureF,DewpointF,PressureIn,WindDirection,WindDirectionDegrees,WindSpeedMPH,WindSpeedGustMPH,Humidity,HourlyPrecipIn,Conditions,Clouds,dailyrainin,SoftwareType,DateUTC
2013-01-28 00:01:00,37.6,37.6,29.77,NW,310,0.0,0.0,100,0.00,,---,0.00,VWS V14.01,2013-01-28 06:01:00,
2013-01-28 00:07:00,37.6,37.6,29.77,NW,310,0.0,0.0,100,0.00,,---,0.00,VWS V14.01,2013-01-28 06:07:00,
2013-01-28 00:12:00,37.4,37.4,29.77,NW,310,0.0,0.0,100,0.00,,---,0.00,VWS V14.01,2013-01-28 06:12:00,
2013-01-28 00:18:00,37.4,37.4,29.77,NW,310,0.0,0.0,100,0.00,,---,0.00,VWS V14.01,2013-01-28 06:18:00,
2013-01-28 00:23:00,37.2,37.2,29.77,NW,317,0.0,0.0,100,0.00,,---,0.00,VWS V14.01,2013-01-28 06:23:00,
2013-01-28 00:28:00,37.0,37.0,29.77,NW,317,0.0,0.0,100,0.00,,---,0.00,VWS V14.01,2013-01-28 06:28:00,
2013-01-28 00:34:00,37.0,37.0,29.77,NW,317,0.0,0.0,100,0.00,,---,0.00,VWS V14.01,2013-01-28 06:34:00,
2013-01-28 00:39:00,37.0,37.0,29.77,NW,317,0.0,0.0,100,0.00,,---,0.00,VWS V14.01,2013-01-28 06:39:00,
2013-01-28 00:44:00,36.9,36.9,29.77,NW,317,0.0,0.0,100,0.00,,---,0.00,VWS V14.01,2013-01-28 06:44:00,
2013-01-28 00:50:00,36.9,36.9,29.80,NW,317,0.0,0.0,100,0.00,,---,0.00,VWS V14.01,2013-01-28 06:50:00,
2013-01-28 00:55:00,36.9,36.9,29.80,NW,317,0.0,0.0,100,0.00,,---,0.00,VWS V14.01,2013-01-28 06:55:00,
2013-01-28 01:00:00,36.7,36.7,29.80,NW,317,0.0,0.0,100,0.00,,---,0.00,VWS V14.01,2013-01-28 07:00:00,
2013-01-28 01:06:00,36.7,36.7,29.80,NW,317,0.0,0.0,100,0.04,,---,0.04,VWS V14.01,2013-01-28 07:06:00,
2013-01-28 01:12:00,36.7,36.7,29.80,NW,317,0.0,0.0,100,0.04,,---,0.04,VWS V14.01,2013-01-28 07:12:00,
2013-01-28 01:17:00,36.7,36.7,29.80,NW,317,0.0,0.0,100,0.04,,---,0.04,VWS V14.01,2013-01-28 07:17:00,
2013-01-28 01:23:00,36.7,36.7,29.80,NW,317,0.0,0.0,100,0.04,,---,0.04,VWS V14.01,2013-01-28 07:23:00,
2013-01-28 01:28:00,36.7,36.7,29.80,NW,317,0.0,0.0,100,0.04,,---,0.04,VWS V14.01,2013-01-28 07:28:00,
2013-01-28 01:33:00,36.5,36.5,29.80,NW,316,0.0,0.0,100,0.04,,---,0.04,VWS V14.01,2013-01-28 07:33:00,
2013-01-28 01:39:00,36.5,36.5,29.80,NW,317,0.0,0.0,100,0.04,,---,0.04,VWS V14.01,2013-01-28 07:39:00,
2013-01-28 01:44:00,36.3,36.3,29.80,NW,317,0.0,0.0,100,0.04,,---,0.04,VWS V14.01,2013-01-28 07:44:00,
2013-01-28 01:49:00,36.3,36.3,29.80,NW,317,0.0,0.0,100,0.04,,---,0.04,VWS V14.01,2013-01-28 07:49:00,
2013-01-28 01:55:00,36.1,36.1,29.80,NW,317,0.0,0.0,100,0.04,,---,0.04,VWS V14.01,2013-01-28 07:55:00,
2013-01-28 02:00:00,36.1,36.1,29.80,NW,317,0.0,0.0,100,0.04,,---,0.04,VWS V14.01,2013-01-28 08:00:00,
2013-01-28 02:05:00,36.1,36.1,29.83,WNW,303,0.0,0.0,100,0.04,,---,0.04,VWS V14.01,2013-01-28 08:05:00,
2013-01-28 02:11:00,36.1,36.1,29.83,WNW,295,0.0,0.0,100,0.00,,---,0.04,VWS V14.01,2013-01-28 08:11:00,
2013-01-28 02:16:00,36.1,36.1,29.83,WNW,295,0.0,0.0,100,0.00,,---,0.04,VWS V14.01,2013-01-28 08:16:00,
2013-01-28 02:22:00,36.0,36.0,29.83,WNW,295,0.0,0.0,100,0.00,,---,0.04,VWS V14.01,2013-01-28 08:22:00,
2013-01-28 02:27:00,36.0,36.0,29.83,NW,311,0.0,0.0,100,0.00,,---,0.04,VWS V14.01,2013-01-28 08:27:00,
2013-01-28 02:32:00,36.1,36.1,29.83,West,264,0.0,0.0,100,0.00,,---,0.04,VWS V14.01,2013-01-28 08:32:00,
2013-01-28 02:38:00,36.1,36.1,29.83,West,265,0.0,0.0,100,0.00,,---,0.04,VWS V14.01,2013-01-28 08:38:00,
2013-01-28 02:44:00,36.1,36.1,29.83,NW,308,0.0,0.0,100,0.00,,---,0.04,VWS V14.01,2013-01-28 08:44:00,
2013-01-28 02:50:00,36.1,36.1,29.83,NW,316,0.0,0.0,100,0.00,,---,0.04,VWS V14.01,2013-01-28 08:50:00,
2013-01-28 02:55:00,36.1,36.1,29.83,NW,315,0.0,0.0,100,0.00,,---,0.04,VWS V14.01,2013-01-28 08:55:00,
2013-01-28 03:01:00,36.1,36.1,29.83,NW,315,0.0,0.0,100,0.00,,---,0.04,VWS V14.01,2013-01-28 09:01:00,
2013-01-28 03:07:00,36.1,36.1,29.83,WNW,292,0.0,0.0,100,0.00,,---,0.04,VWS V14.01,2013-01-28 09:07:00,
2013-01-28 03:12:00,36.1,36.1,29.83,West,275,0.0,10.7,100,0.00,,---,0.04,VWS V14.01,2013-01-28 09:12:00,
2013-01-28 03:17:00,36.0,36.0,29.83,WSW,238,9.4,9.4,100,0.00,,---,0.04,VWS V14.01,2013-01-28 09:17:00,
2013-01-28 03:23:00,36.0,36.0,29.83,SW,220,0.0,0.0,100,0.00,,---,0.04,VWS V14.01,2013-01-28 09:23:00,
2013-01-28 03:28:00,36.0,36.0,29.83,West,263,0.0,0.0,100,0.00,,---,0.04,VWS V14.01,2013-01-28 09:28:00,
2013-01-28 03:33:00,35.8,35.8,29.83,West,281,0.0,0.0,100,0.00,,---,0.04,VWS V14.01,2013-01-28 09:33:00,
2013-01-28 03:39:00,35.8,35.8,29.83,NW,307,0.0,0.0,100,0.00,,---,0.04,VWS V14.01,2013-01-28 09:39:00,
2013-01-28 03:45:00,35.6,35.6,29.83,West,270,0.0,0.0,100,0.00,,---,0.04,VWS V14.01,2013-01-28 09:45:00,
2013-01-28 03:51:00,35.4,35.4,29.83,NW,324,9.4,9.4,100,0.00,,---,0.04,VWS V14.01,2013-01-28 09:51:00,
2013-01-28 03:57:00,35.2,35.2,29.83,NW,312,9.4,12.1,100,0.00,,---,0.04,VWS V14.01,2013-01-28 09:57:00,
2013-01-28 04:03:00,35.1,35.1,29.83,NW,315,6.7,8.1,100,0.00,,---,0.04,VWS V14.01,2013-01-28 10:03:00,
2013-01-28 04:08:00,35.1,35.1,29.86,North,353,0.0,0.0,100,0.00,,---,0.04,VWS V14.01,2013-01-28 10:08:00,
2013-01-28 04:13:00,34.9,34.9,29.86,NW,312,0.0,9.4,100,0.00,,---,0.04,VWS V14.01,2013-01-28 10:13:00,
2013-01-28 04:18:00,34.9,34.9,29.86,NNW,331,10.7,10.7,100,0.00,,---,0.04,VWS V14.01,2013-01-28 10:18:00,
2013-01-28 04:24:00,34.9,34.9,29.86,NW,305,0.0,6.7,100,0.00,,---,0.04,VWS V14.01,2013-01-28 10:24:00,
2013-01-28 04:29:00,34.7,34.7,29.86,NW,319,0.0,0.0,100,0.00,,---,0.04,VWS V14.01,2013-01-28 10:29:00,
2013-01-28 04:35:00,34.5,34.5,29.86,NW,321,0.0,0.0,100,0.00,,---,0.04,VWS V14.01,2013-01-28 10:35:00,
2013-01-28 04:41:00,34.3,34.3,29.86,NW,323,0.0,0.0,100,0.00,,---,0.04,VWS V14.01,2013-01-28 10:41:00,
2013-01-28 04:46:00,34.3,34.3,29.86,NW,325,0.0,9.4,100,0.00,,---,0.04,VWS V14.01,2013-01-28 10:46:00,
2013-01-28 04:51:00,34.2,34.2,29.86,NNW,327,0.0,0.0,100,0.00,,---,0.04,VWS V14.01,2013-01-28 10:51:00,
2013-01-28 04:57:00,34.2,34.2,29.86,North,9,0.0,0.0,100,0.00,,---,0.04,VWS V14.01,2013-01-28 10:57:00,
2013-01-28 05:02:00,34.2,34.2,29.86,NNW,327,0.0,0.0,100,0.00,,---,0.04,VWS V14.01,2013-01-28 11:02:00,
2013-01-28 05:08:00,34.0,34.0,29.86,North,0,0.0,0.0,100,0.00,,---,0.04,VWS V14.01,2013-01-28 11:08:00,
2013-01-28 05:13:00,34.0,34.0,29.86,NW,307,0.0,0.0,100,0.00,,---,0.04,VWS V14.01,2013-01-28 11:13:00,
2013-01-28 05:19:00,34.0,34.0,29.86,West,273,0.0,0.0,100,0.00,,---,0.04,VWS V14.01,2013-01-28 11:19:00,
2013-01-28 05:24:00,34.0,34.0,29.86,NW,326,0.0,0.0,100,0.00,,---,0.04,VWS V14.01,2013-01-28 11:24:00,
2013-01-28 05:29:00,34.0,34.0,29.86,NW,319,0.0,0.0,100,0.00,,---,0.04,VWS V14.01,2013-01-28 11:29:00,
2013-01-28 05:35:00,34.0,34.0,29.86,NNW,348,0.0,0.0,100,0.00,,---,0.04,VWS V14.01,2013-01-28 11:35:00,
2013-01-28 05:41:00,34.0,34.0,29.86,NNW,348,0.0,0.0,100,0.00,,---,0.04,VWS V14.01,2013-01-28 11:41:00,
2013-01-28 05:46:00,33.8,33.8,29.86,NNW,340,0.0,0.0,100,0.00,,---,0.04,VWS V14.01,2013-01-28 11:46:00,
2013-01-28 05:52:00,33.8,33.8,29.89,SW,222,0.0,0.0,100,0.00,,---,0.04,VWS V14.01,2013-01-28 11:52:00,
2013-01-28 05:58:00,33.8,33.8,29.89,NW,319,0.0,0.0,100,0.00,,---,0.04,VWS V14.01,2013-01-28 11:58:00,
2013-01-28 06:03:00,33.8,33.8,29.89,NW,319,0.0,0.0,100,0.00,,---,0.04,VWS V14.01,2013-01-28 12:03:00,
2013-01-28 06:08:00,33.8,33.8,29.89,NW,319,0.0,0.0,100,0.00,,---,0.04,VWS V14.01,2013-01-28 12:08:00,
2013-01-28 06:13:00,33.8,33.8,29.89,NW,319,0.0,0.0,100,0.00,,---,0.04,VWS V14.01,2013-01-28 12:13:00,
2013-01-28 06:19:00,33.8,33.8,29.89,NW,319,0.0,0.0,100,0.00,,---,0.04,VWS V14.01,2013-01-28 12:19:00,
2013-01-28 06:24:00,33.8,33.8,29.89,NW,319,0.0,0.0,100,0.00,,---,0.04,VWS V14.01,2013-01-28 12:24:00,
2013-01-28 06:29:00,33.8,33.8,29.89,NW,319,0.0,0.0,100,0.00,,---,0.04,VWS V14.01,2013-01-28 12:29:00,
2013-01-28 06:35:00,33.8,33.8,29.89,NW,319,0.0,0.0,100,0.00,,---,0.04,VWS V14.01,2013-01-28 12:35:00,
2013-01-28 06:40:00,33.8,33.8,29.89,NW,319,0.0,0.0,100,0.00,,---,0.04,VWS V14.01,2013-01-28 12:40:00,
2013-01-28 06:45:00,33.6,33.6,29.89,NW,319,0.0,0.0,100,0.00,,---,0.04,VWS V14.01,2013-01-28 12:45:00,
2013-01-28 06:50:00,33.6,33.6,29.89,NW,319,0.0,0.0,100,0.00,,---,0.04,VWS V14.01,2013-01-28 12:50:00,
2013-01-28 06:55:00,33.6,33.6,29.89,NW,319,0.0,0.0,100,0.00,,---,0.04,VWS V14.01,2013-01-28 12:55:00,
2013-01-28 07:01:00,33.6,33.6,29.89,NW,319,0.0,0.0,100,0.00,,---,0.04,VWS V14.01,2013-01-28 13:01:00,
2013-01-28 07:06:00,33.6,33.6,29.89,NNE,22,0.0,0.0,100,0.00,,---,0.04,VWS V14.01,2013-01-28 13:06:00,
2013-01-28 07:11:00,33.6,33.6,29.89,NNE,22,0.0,0.0,100,0.00,,---,0.04,VWS V14.01,2013-01-28 13:11:00,
2013-01-28 07:16:00,33.6,33.6,29.89,NNE,22,0.0,0.0,100,0.00,,---,0.04,VWS V14.01,2013-01-28 13:16:00,
2013-01-28 07:21:00,33.6,33.6,29.89,NNE,22,0.0,0.0,100,0.00,,---,0.04,VWS V14.01,2013-01-28 13:21:00,
2013-01-28 07:27:00,33.4,33.4,29.89,NNE,22,0.0,0.0,100,0.00,,---,0.04,VWS V14.01,2013-01-28 13:27:00,
2013-01-28 07:33:00,33.6,33.6,29.89,NNE,22,0.0,0.0,100,0.00,,---,0.04,VWS V14.01,2013-01-28 13:33:00,
2013-01-28 07:38:00,33.6,33.6,29.89,NNE,22,0.0,0.0,100,0.00,,---,0.04,VWS V14.01,2013-01-28 13:38:00,
2013-01-28 07:43:00,33.6,33.6,29.89,NNE,22,0.0,0.0,100,0.00,,---,0.04,VWS V14.01,2013-01-28 13:43:00,
2013-01-28 07:48:00,33.6,33.6,29.89,NNE,22,0.0,0.0,100,0.00,,---,0.04,VWS V14.01,2013-01-28 13:48:00,
2013-01-28 07:54:00,33.6,33.6,29.89,South,175,0.0,0.0,100,0.00,,---,0.04,VWS V14.01,2013-01-28 13:54:00,
2013-01-28 07:59:00,33.6,33.6,29.89,South,176,0.0,0.0,100,0.00,,---,0.04,VWS V14.01,2013-01-28 13:59:00,
2013-01-28 08:04:00,33.6,33.6,29.89,South,175,0.0,0.0,100,0.00,,---,0.04,VWS V14.01,2013-01-28 14:04:00,
2013-01-28 08:09:00,33.6,33.6,29.92,SSE,149,0.0,0.0,100,0.00,,---,0.04,VWS V14.01,2013-01-28 14:09:00,
2013-01-28 08:15:00,33.4,33.4,29.92,SSW,200,0.0,0.0,100,0.00,,---,0.04,VWS V14.01,2013-01-28 14:15:00,
2013-01-28 08:20:00,33.4,33.4,29.89,SSW,200,0.0,0.0,100,0.00,,---,0.04,VWS V14.01,2013-01-28 14:20:00,
2013-01-28 08:26:00,33.6,33.6,29.89,West,261,0.0,0.0,100,0.00,,---,0.04,VWS V14.01,2013-01-28 14:26:00,
2013-01-28 08:32:00,33.6,33.6,29.89,West,261,0.0,0.0,100,0.00,,---,0.04,VWS V14.01,2013-01-28 14:32:00,
2013-01-28 08:37:00,33.6,33.6,29.92,West,261,0.0,0.0,100,0.00,,---,0.04,VWS V14.01,2013-01-28 14:37:00,
2013-01-28 08:43:00,33.6,33.6,29.92,West,261,0.0,0.0,100,0.00,,---,0.04,VWS V14.01,2013-01-28 14:43:00,
2013-01-28 08:49:00,33.6,33.6,29.92,West,261,0.0,0.0,100,0.00,,---,0.04,VWS V14.01,2013-01-28 14:49:00,
2013-01-28 08:54:00,33.8,33.8,29.92,West,261,0.0,0.0,100,0.00,,---,0.04,VWS V14.01,2013-01-28 14:54:00,
2013-01-28 08:59:00,33.6,33.6,29.92,West,261,0.0,0.0,100,0.00,,---,0.04,VWS V14.01,2013-01-28 14:59:00,
2013-01-28 09:04:00,33.6,33.6,29.92,West,261,0.0,0.0,100,0.00,,---,0.04,VWS V14.01,2013-01-28 15:04:00,
2013-01-28 09:10:00,33.8,33.8,29.92,West,262,0.0,0.0,100,0.00,,---,0.04,VWS V14.01,2013-01-28 15:10:00,
2013-01-28 09:15:00,33.8,33.8,29.92,West,262,0.0,0.0,100,0.00,,---,0.04,VWS V14.01,2013-01-28 15:15:00,
2013-01-28 09:21:00,33.8,33.8,29.92,West,262,0.0,0.0,100,0.00,,---,0.04,VWS V14.01,2013-01-28 15:21:00,
2013-01-28 09:26:00,34.0,34.0,29.92,West,262,0.0,0.0,100,0.00,,---,0.04,VWS V14.01,2013-01-28 15:26:00,
2013-01-28 09:31:00,34.0,34.0,29.92,West,262,0.0,0.0,100,0.00,,---,0.04,VWS V14.01,2013-01-28 15:31:00,
2013-01-28 09:36:00,34.0,34.0,29.92,West,266,0.0,0.0,100,0.00,,---,0.04,VWS V14.01,2013-01-28 15:36:00,
2013-01-28 09:41:00,34.2,34.2,29.92,NE,53,0.0,0.0,100,0.00,,---,0.04,VWS V14.01,2013-01-28 15:41:00,
2013-01-28 09:47:00,34.0,34.0,29.92,NE,43,9.4,10.7,100,0.00,,---,0.04,VWS V14.01,2013-01-28 15:47:00,
2013-01-28 09:53:00,34.0,34.0,29.92,NE,41,6.7,9.4,100,0.00,,---,0.04,VWS V14.01,2013-01-28 15:53:00,
2013-01-28 09:58:00,34.0,34.0,29.92,NNE,13,0.0,0.0,100,0.00,,---,0.04,VWS V14.01,2013-01-28 15:58:00,
2013-01-28 10:03:00,34.0,34.0,29.92,NNE,13,0.0,0.0,100,0.00,,---,0.04,VWS V14.01,2013-01-28 16:03:00,
2013-01-28 10:08:00,34.2,34.2,29.89,NNE,13,0.0,0.0,100,0.00,,---,0.04,VWS V14.01,2013-01-28 16:08:00,
2013-01-28 10:14:00,34.3,34.3,29.89,NE,42,0.0,0.0,100,0.00,,---,0.04,VWS V14.01,2013-01-28 16:14:00,
2013-01-28 10:19:00,34.5,34.5,29.89,NE,42,0.0,0.0,100,0.00,,---,0.04,VWS V14.01,2013-01-28 16:19:00,
2013-01-28 10:24:00,34.7,34.7,29.89,ENE,78,0.0,0.0,100,0.00,,---,0.04,VWS V14.01,2013-01-28 16:24:00,
2013-01-28 10:30:00,34.7,34.7,29.89,NE,48,0.0,0.0,100,0.00,,---,0.04,VWS V14.01,2013-01-28 16:30:00,
2013-01-28 10:35:00,34.9,34.9,29.89,NE,48,0.0,0.0,100,0.00,,---,0.04,VWS V14.01,2013-01-28 16:35:00,
2013-01-28 10:40:00,34.9,34.9,29.89,East,97,0.0,0.0,100,0.00,,---,0.04,VWS V14.01,2013-01-28 16:40:00,
2013-01-28 10:46:00,34.9,34.9,29.89,SE,125,0.0,0.0,100,0.00,,---,0.04,VWS V14.01,2013-01-28 16:46:00,
2013-01-28 10:52:00,35.2,35.2,29.89,SE,126,8.1,8.1,100,0.00,,---,0.04,VWS V14.01,2013-01-28 16:52:00,
2013-01-28 10:57:00,35.4,35.4,29.89,East,99,8.1,9.4,100,0.00,,---,0.04,VWS V14.01,2013-01-28 16:57:00,
2013-01-28 11:03:00,35.4,35.4,29.89,SE,124,8.1,8.1,100,0.00,,---,0.04,VWS V14.01,2013-01-28 17:03:00,
2013-01-28 11:08:00,35.4,35.4,29.89,ESE,114,8.1,10.7,100,0.00,,---,0.04,VWS V14.01,2013-01-28 17:08:00,
2013-01-28 11:13:00,35.2,35.2,29.89,East,101,9.4,9.4,100,0.00,,---,0.04,VWS V14.01,2013-01-28 17:13:00,
2013-01-28 11:18:00,35.1,35.1,29.89,ESE,109,0.0,0.0,100,0.00,,---,0.04,VWS V14.01,2013-01-28 17:18:00,
2013-01-28 11:24:00,35.2,35.2,29.89,SE,146,9.4,10.7,100,0.00,,---,0.04,VWS V14.01,2013-01-28 17:24:00,
2013-01-28 11:29:00,35.4,35.4,29.89,ESE,116,12.1,17.4,100,0.00,,---,0.04,VWS V14.01,2013-01-28 17:29:00,
2013-01-28 11:35:00,35.4,35.4,29.89,East,98,0.0,0.0,100,0.00,,---,0.04,VWS V14.01,2013-01-28 17:35:00,
2013-01-28 11:40:00,35.2,35.2,29.89,ESE,118,9.4,9.4,100,0.00,,---,0.04,VWS V14.01,2013-01-28 17:40:00,
2013-01-28 11:46:00,35.4,35.4,29.89,ESE,109,14.8,14.8,100,0.00,,---,0.04,VWS V14.01,2013-01-28 17:46:00,
2013-01-28 11:51:00,35.4,35.4,29.89,SE,146,12.1,12.1,100,0.00,,---,0.04,VWS V14.01,2013-01-28 17:51:00,
2013-01-28 11:56:00,35.6,35.6,29.89,ESE,116,8.1,10.7,100,0.00,,---,0.04,VWS V14.01,2013-01-28 17:56:00,
2013-01-28 12:01:00,36.0,36.0,29.89,ESE,122,10.7,14.8,100,0.00,,---,0.04,VWS V14.01,2013-01-28 18:01:00,
2013-01-28 12:07:00,35.8,35.8,29.89,ESE,117,12.1,12.1,100,0.00,,---,0.04,VWS V14.01,2013-01-28 18:07:00,
2013-01-28 12:12:00,35.8,35.8,29.89,East,86,0.0,6.7,100,0.00,,---,0.04,VWS V14.01,2013-01-28 18:12:00,
2013-01-28 12:18:00,35.8,35.8,29.89,SE,124,0.0,6.7,100,0.00,,---,0.04,VWS V14.01,2013-01-28 18:18:00,
2013-01-28 12:24:00,36.0,36.0,29.86,ESE,115,0.0,6.7,100,0.00,,---,0.04,VWS V14.01,2013-01-28 18:24:00,
2013-01-28 12:29:00,36.0,36.0,29.86,ESE,115,0.0,0.0,100,0.00,,---,0.04,VWS V14.01,2013-01-28 18:29:00,
2013-01-28 12:34:00,36.1,36.1,29.86,ENE,60,0.0,9.4,100,0.00,,---,0.04,VWS V14.01,2013-01-28 18:34:00,
2013-01-28 12:40:00,36.3,36.3,29.86,ESE,102,0.0,0.0,100,0.00,,---,0.04,VWS V14.01,2013-01-28 18:40:00,
2013-01-28 12:45:00,36.5,36.5,29.86,ESE,118,9.4,14.8,100,0.00,,---,0.04,VWS V14.01,2013-01-28 18:45:00,
2013-01-28 12:51:00,36.7,36.7,29.86,East,100,0.0,0.0,100,0.00,,---,0.04,VWS V14.01,2013-01-28 18:51:00,
2013-01-28 12:56:00,36.9,36.9,29.86,East,98,0.0,8.1,100,0.00,,---,0.04,VWS V14.01,2013-01-28 18:56:00,
2013-01-28 13:02:00,37.0,37.0,29.86,East,84,0.0,0.0,100,0.00,,---,0.04,VWS V14.01,2013-01-28 19:02:00,
2013-01-28 13:07:00,37.2,37.2,29.83,SE,134,8.1,8.1,100,0.00,,---,0.04,VWS V14.01,2013-01-28 19:07:00,
2013-01-28 13:12:00,37.2,37.2,29.83,ENE,65,6.7,8.1,100,0.00,,---,0.04,VWS V14.01,2013-01-28 19:12:00,
2013-01-28 13:17:00,37.0,37.0,29.83,SE,125,16.1,18.8,100,0.00,,---,0.04,VWS V14.01,2013-01-28 19:17:00,
2013-01-28 13:23:00,37.2,37.2,29.83,ESE,114,10.7,12.1,100,0.00,,---,0.04,VWS V14.01,2013-01-28 19:23:00,
2013-01-28 13:29:00,37.4,37.4,29.83,SSE,147,8.1,9.4,100,0.00,,---,0.04,VWS V14.01,2013-01-28 19:29:00,
2013-01-28 13:34:00,37.8,37.8,29.83,ESE,111,0.0,12.1,100,0.00,,---,0.04,VWS V14.01,2013-01-28 19:34:00,
2013-01-28 13:40:00,37.8,37.8,29.83,ESE,121,6.7,16.1,100,0.00,,---,0.04,VWS V14.01,2013-01-28 19:40:00,
2013-01-28 13:45:00,37.8,37.8,29.83,East,86,0.0,8.1,100,0.00,,---,0.04,VWS V14.01,2013-01-28 19:45:00,
2013-01-28 13:50:00,37.9,37.9,29.83,ENE,77,6.7,16.1,100,0.00,,---,0.04,VWS V14.01,2013-01-28 19:50:00,
2013-01-28 13:55:00,37.9,37.9,29.83,ESE,104,14.8,17.4,100,0.00,,---,0.04,VWS V14.01,2013-01-28 19:55:00,
2013-01-28 14:01:00,37.9,37.9,29.83,ESE,116,8.1,8.1,100,0.00,,---,0.04,VWS V14.01,2013-01-28 20:01:00,
2013-01-28 14:06:00,38.1,38.1,29.80,ESE,111,9.4,9.4,100,0.00,,---,0.04,VWS V14.01,2013-01-28 20:06:00,
2013-01-28 14:12:00,37.9,37.9,29.80,ESE,109,0.0,9.4,100,0.00,,---,0.04,VWS V14.01,2013-01-28 20:12:00,
2013-01-28 14:18:00,37.9,37.9,29.80,East,95,8.1,12.1,100,0.00,,---,0.04,VWS V14.01,2013-01-28 20:18:00,
2013-01-28 14:23:00,37.9,37.9,29.80,East,88,9.4,9.4,100,0.00,,---,0.04,VWS V14.01,2013-01-28 20:23:00,
2013-01-28 14:28:00,38.1,38.1,29.80,ESE,110,0.0,14.8,100,0.00,,---,0.04,VWS V14.01,2013-01-28 20:28:00,
2013-01-28 14:34:00,38.1,38.1,29.80,East,88,0.0,0.0,100,0.00,,---,0.04,VWS V14.01,2013-01-28 20:34:00,
2013-01-28 14:39:00,38.1,38.1,29.80,East,88,12.1,12.1,100,0.00,,---,0.04,VWS V14.01,2013-01-28 20:39:00,
2013-01-28 14:45:00,37.9,37.9,29.80,ESE,116,10.7,10.7,100,0.00,,---,0.04,VWS V14.01,2013-01-28 20:45:00,
2013-01-28 14:51:00,37.9,37.9,29.80,East,99,12.1,17.4,100,0.00,,---,0.04,VWS V14.01,2013-01-28 20:51:00,
2013-01-28 14:57:00,37.9,37.9,29.80,East,87,17.4,17.4,100,0.00,,---,0.04,VWS V14.01,2013-01-28 20:57:00,
2013-01-28 15:02:00,37.9,37.9,29.80,East,88,0.0,0.0,100,0.00,,---,0.04,VWS V14.01,2013-01-28 21:02:00,
2013-01-28 15:08:00,38.1,38.1,29.80,ESE,122,12.1,12.1,100,0.00,,---,0.04,VWS V14.01,2013-01-28 21:08:00,
2013-01-28 15:13:00,38.1,38.1,29.80,East,97,6.7,8.1,100,0.00,,---,0.04,VWS V14.01,2013-01-28 21:13:00,
2013-01-28 15:19:00,38.1,38.1,29.80,ESE,120,10.7,10.7,100,0.00,,---,0.04,VWS V14.01,2013-01-28 21:19:00,
2013-01-28 15:25:00,38.3,38.3,29.80,ESE,103,16.1,16.1,100,0.00,,---,0.04,VWS V14.01,2013-01-28 21:25:00,
2013-01-28 15:30:00,38.1,38.1,29.80,ENE,77,10.7,17.4,100,0.00,,---,0.04,VWS V14.01,2013-01-28 21:30:00,
2013-01-28 15:35:00,38.1,38.1,29.77,East,101,0.0,0.0,100,0.00,,---,0.04,VWS V14.01,2013-01-28 21:35:00,
2013-01-28 15:41:00,38.1,38.1,29.77,East,87,8.1,9.4,100,0.00,,---,0.04,VWS V14.01,2013-01-28 21:41:00,
2013-01-28 15:47:00,38.1,38.1,29.77,ESE,103,10.7,10.7,100,0.00,,---,0.04,VWS V14.01,2013-01-28 21:47:00,
2013-01-28 15:52:00,38.1,38.1,29.77,East,97,14.8,18.8,100,0.00,,---,0.04,VWS V14.01,2013-01-28 21:52:00,
2013-01-28 15:57:00,38.1,38.1,29.77,ESE,111,24.8,24.8,100,0.00,,---,0.04,VWS V14.01,2013-01-28 21:57:00,
2013-01-28 16:02:00,38.3,38.3,29.77,ESE,104,14.8,14.8,100,0.00,,---,0.04,VWS V14.01,2013-01-28 22:02:00,
2013-01-28 16:07:00,38.3,38.3,29.80,SE,129,16.1,16.1,100,0.00,,---,0.04,VWS V14.01,2013-01-28 22:07:00,
2013-01-28 16:13:00,38.5,38.5,29.80,East,83,9.4,10.7,100,0.00,,---,0.04,VWS V14.01,2013-01-28 22:13:00,
2013-01-28 16:18:00,38.5,38.5,29.80,SE,130,12.1,12.1,100,0.00,,---,0.04,VWS V14.01,2013-01-28 22:18:00,
2013-01-28 16:24:00,38.5,38.5,29.77,SE,137,18.8,18.8,100,0.00,,---,0.04,VWS V14.01,2013-01-28 22:24:00,
2013-01-28 16:29:00,38.5,38.5,29.77,SE,136,12.1,18.8,100,0.00,,---,0.04,VWS V14.01,2013-01-28 22:29:00,
2013-01-28 16:34:00,38.3,38.3,29.77,East,98,16.1,16.1,100,0.00,,---,0.04,VWS V14.01,2013-01-28 22:34:00,
2013-01-28 16:40:00,38.3,38.3,29.77,ESE,106,8.1,8.1,100,0.00,,---,0.04,VWS V14.01,2013-01-28 22:40:00,
2013-01-28 16:45:00,38.3,38.3,29.77,SE,133,10.7,16.1,100,0.00,,---,0.04,VWS V14.01,2013-01-28 22:45:00,
2013-01-28 16:50:00,38.1,38.1,29.77,ESE,111,10.7,10.7,100,0.00,,---,0.04,VWS V14.01,2013-01-28 22:50:00,
2013-01-28 16:55:00,38.1,38.1,29.77,ESE,119,12.1,12.1,100,0.00,,---,0.04,VWS V14.01,2013-01-28 22:55:00,
2013-01-28 17:00:00,38.3,38.3,29.77,East,91,12.1,12.1,100,0.00,,---,0.04,VWS V14.01,2013-01-28 23:00:00,
2013-01-28 17:05:00,38.3,38.3,29.74,East,80,10.7,17.4,100,0.00,,---,0.04,VWS V14.01,2013-01-28 23:05:00,
2013-01-28 17:10:00,38.5,38.5,29.74,East,95,17.4,17.4,100,0.00,,---,0.04,VWS V14.01,2013-01-28 23:10:00,
2013-01-28 17:15:00,38.5,38.5,29.74,East,85,10.7,10.7,100,0.00,,---,0.04,VWS V14.01,2013-01-28 23:15:00,
2013-01-28 17:21:00,38.5,38.5,29.74,SE,136,6.7,6.7,100,0.00,,---,0.04,VWS V14.01,2013-01-28 23:21:00,
2013-01-28 17:26:00,38.5,38.5,29.74,ESE,119,12.1,12.1,100,0.00,,---,0.04,VWS V14.01,2013-01-28 23:26:00,
2013-01-28 17:31:00,38.5,38.5,29.74,ESE,119,12.1,12.1,100,0.00,,---,0.04,VWS V14.01,2013-01-28 23:31:00,
2013-01-28 17:36:00,38.7,38.7,29.74,ESE,111,14.8,14.8,100,0.00,,---,0.04,VWS V14.01,2013-01-28 23:36:00,
2013-01-28 17:42:00,38.7,38.7,29.74,East,99,8.1,8.1,100,0.00,,---,0.04,VWS V14.01,2013-01-28 23:42:00,
2013-01-28 17:48:00,38.7,38.7,29.74,East,88,9.4,9.4,100,0.00,,---,0.04,VWS V14.01,2013-01-28 23:48:00,
2013-01-28 17:53:00,38.7,38.7,29.74,East,88,9.4,9.4,100,0.00,,---,0.04,VWS V14.01,2013-01-28 23:53:00,
2013-01-28 17:59:00,38.7,38.7,29.74,SSE,155,18.8,18.8,100,0.00,,---,0.04,VWS V14.01,2013-01-28 23:59:00,
2013-01-28 18:04:00,38.7,38.7,29.74,SE,128,14.8,14.8,100,0.00,,---,0.04,VWS V14.01,2013-01-29 00:04:00,
2013-01-28 18:09:00,38.7,38.7,29.74,SE,128,14.8,14.8,100,0.00,,---,0.04,VWS V14.01,2013-01-29 00:09:00,
2013-01-28 18:14:00,38.7,38.7,29.74,East,92,9.4,9.4,100,0.00,,---,0.04,VWS V14.01,2013-01-29 00:14:00,
2013-01-28 18:19:00,38.8,38.8,29.74,East,92,9.4,9.4,100,0.00,,---,0.04,VWS V14.01,2013-01-29 00:19:00,
2013-01-28 18:24:00,38.8,38.8,29.74,East,92,9.4,9.4,100,0.00,,---,0.04,VWS V14.01,2013-01-29 00:24:00,
2013-01-28 18:30:00,38.8,38.8,29.74,ESE,114,24.2,24.2,100,0.00,,---,0.04,VWS V14.01,2013-01-29 00:30:00,
2013-01-28 18:35:00,38.8,38.8,29.71,ESE,109,14.8,14.8,100,0.00,,---,0.04,VWS V14.01,2013-01-29 00:35:00,
2013-01-28 18:40:00,39.0,39.0,29.71,SE,124,17.4,18.8,100,0.00,,---,0.04,VWS V14.01,2013-01-29 00:40:00,
2013-01-28 18:45:00,39.2,39.2,29.71,SSE,148,10.7,17.4,100,0.00,,---,0.04,VWS V14.01,2013-01-29 00:45:00,
2013-01-28 18:50:00,39.2,39.2,29.71,ESE,119,16.1,16.1,100,0.00,,---,0.04,VWS V14.01,2013-01-29 00:50:00,
2013-01-28 18:56:00,39.4,39.4,29.71,East,99,17.4,17.4,100,0.00,,---,0.04,VWS V14.01,2013-01-29 00:56:00,
2013-01-28 19:01:00,39.4,39.4,29.71,ESE,116,22.8,22.8,100,0.00,,---,0.04,VWS V14.01,2013-01-29 01:01:00,
2013-01-28 19:07:00,39.7,39.7,29.71,SE,133,9.4,9.4,100,0.00,,---,0.04,VWS V14.01,2013-01-29 01:07:00,
2013-01-28 19:13:00,39.7,39.7,29.71,SE,131,10.7,14.8,100,0.00,,---,0.04,VWS V14.01,2013-01-29 01:13:00,
2013-01-28 19:18:00,39.7,39.7,29.71,SE,131,10.7,10.7,100,0.00,,---,0.04,VWS V14.01,2013-01-29 01:18:00,
2013-01-28 19:23:00,39.7,39.7,29.71,SE,131,10.7,10.7,100,0.00,,---,0.04,VWS V14.01,2013-01-29 01:23:00,
2013-01-28 19:28:00,39.9,39.9,29.71,East,97,16.1,16.1,100,0.00,,---,0.04,VWS V14.01,2013-01-29 01:28:00,
2013-01-28 19:33:00,40.1,40.1,29.71,East,99,12.1,22.8,100,0.00,,---,0.04,VWS V14.01,2013-01-29 01:33:00,
2013-01-28 19:39:00,40.1,40.1,29.71,ESE,109,9.4,9.4,100,0.00,,---,0.04,VWS V14.01,2013-01-29 01:39:00,
2013-01-28 19:44:00,40.1,40.1,29.71,ESE,109,9.4,9.4,100,0.00,,---,0.04,VWS V14.01,2013-01-29 01:44:00,
2013-01-28 19:50:00,40.3,40.3,29.71,SE,130,24.2,24.2,100,0.00,,---,0.04,VWS V14.01,2013-01-29 01:50:00,
2013-01-28 19:55:00,40.3,40.3,29.71,ESE,111,9.4,9.4,100,0.00,,---,0.04,VWS V14.01,2013-01-29 01:55:00,
2013-01-28 20:01:00,40.6,40.6,29.71,SE,136,17.4,17.4,100,0.00,,---,0.04,VWS V14.01,2013-01-29 02:01:00,
2013-01-28 20:07:00,40.6,40.6,29.68,SE,130,16.1,24.8,100,0.00,,---,0.04,VWS V14.01,2013-01-29 02:07:00,
2013-01-28 20:13:00,40.6,40.6,29.68,ESE,122,16.1,16.1,100,0.00,,---,0.04,VWS V14.01,2013-01-29 02:13:00,
2013-01-28 20:18:00,40.6,40.6,29.68,East,99,8.1,8.1,100,0.00,,---,0.04,VWS V14.01,2013-01-29 02:18:00,
2013-01-28 20:23:00,40.5,40.5,29.68,East,99,8.1,8.1,100,0.00,,---,0.04,VWS V14.01,2013-01-29 02:23:00,
2013-01-28 20:29:00,40.5,40.5,29.68,East,99,8.1,8.1,100,0.00,,---,0.04,VWS V14.01,2013-01-29 02:29:00,
2013-01-28 20:34:00,40.6,40.6,29.68,East,91,0.0,0.0,100,0.00,,---,0.04,VWS V14.01,2013-01-29 02:34:00,
2013-01-28 20:39:00,40.6,40.6,29.68,ESE,110,8.1,8.1,100,0.00,,---,0.04,VWS V14.01,2013-01-29 02:39:00,
2013-01-28 20:44:00,40.8,40.8,29.68,ESE,122,16.1,16.1,100,0.00,,---,0.04,VWS V14.01,2013-01-29 02:44:00,
2013-01-28 20:49:00,40.8,40.8,29.68,NE,37,18.8,18.8,100,0.04,,---,0.08,VWS V14.01,2013-01-29 02:49:00,
2013-01-28 20:54:00,41.4,41.4,29.65,ESE,118,14.8,14.8,100,0.04,,---,0.08,VWS V14.01,2013-01-29 02:54:00,
2013-01-28 21:00:00,41.9,41.9,29.65,East,97,8.1,9.4,100,0.04,,---,0.08,VWS V14.01,2013-01-29 03:00:00,
2013-01-28 21:05:00,41.9,41.9,29.65,East,97,6.7,6.7,100,0.04,,---,0.08,VWS V14.01,2013-01-29 03:05:00,
2013-01-28 21:10:00,41.9,41.9,29.65,ESE,120,10.7,10.7,100,0.04,,---,0.08,VWS V14.01,2013-01-29 03:10:00,
2013-01-28 21:16:00,42.3,42.3,29.65,SE,129,0.0,10.7,100,0.04,,---,0.08,VWS V14.01,2013-01-29 03:16:00,
2013-01-28 21:21:00,42.6,42.6,29.65,SE,129,0.0,0.0,100,0.08,,---,0.12,VWS V14.01,2013-01-29 03:21:00,
2013-01-28 21:26:00,42.8,42.8,29.65,ESE,117,10.7,10.7,100,0.08,,---,0.12,VWS V14.01,2013-01-29 03:26:00,
2013-01-28 21:31:00,43.2,43.2,29.65,SE,137,10.7,10.7,100,0.08,,---,0.12,VWS V14.01,2013-01-29 03:31:00,
2013-01-28 21:37:00,43.3,43.3,29.62,SE,137,10.7,10.7,100,0.12,,---,0.16,VWS V14.01,2013-01-29 03:37:00,
2013-01-28 21:42:00,43.3,43.3,29.62,ESE,114,17.4,17.4,100,0.12,,---,0.16,VWS V14.01,2013-01-29 03:42:00,
2013-01-28 21:48:00,43.5,43.5,29.62,SE,134,17.4,17.4,100,0.12,,---,0.16,VWS V14.01,2013-01-29 03:48:00,
2013-01-28 21:53:00,43.9,43.9,29.62,SSW,199,0.0,0.0,100,0.08,,---,0.16,VWS V14.01,2013-01-29 03:53:00,
2013-01-28 21:59:00,44.1,44.1,29.62,SE,128,6.7,6.7,100,0.08,,---,0.16,VWS V14.01,2013-01-29 03:59:00,
2013-01-28 22:04:00,44.1,44.1,29.62,SSE,153,8.1,8.1,100,0.08,,---,0.16,VWS V14.01,2013-01-29 04:04:00,
2013-01-28 22:09:00,44.2,44.2,29.62,SSE,150,16.1,16.1,100,0.08,,---,0.16,VWS V14.01,2013-01-29 04:09:00,
2013-01-28 22:14:00,44.2,44.2,29.62,NW,321,0.0,0.0,100,0.16,,---,0.24,VWS V14.01,2013-01-29 04:14:00,
2013-01-28 22:19:00,44.4,44.4,29.62,NNE,24,0.0,0.0,100,0.16,,---,0.24,VWS V14.01,2013-01-29 04:19:00,
2013-01-28 22:25:00,44.2,44.2,29.62,NNE,24,0.0,0.0,100,0.12,,---,0.24,VWS V14.01,2013-01-29 04:25:00,
2013-01-28 22:30:00,45.3,45.3,29.62,NNE,24,0.0,0.0,100,0.12,,---,0.24,VWS V14.01,2013-01-29 04:30:00,
2013-01-28 22:35:00,45.1,45.1,29.62,NNE,24,0.0,0.0,100,0.12,,---,0.24,VWS V14.01,2013-01-29 04:35:00,
2013-01-28 22:40:00,45.0,45.0,29.62,SE,137,9.4,9.4,100,0.08,,---,0.24,VWS V14.01,2013-01-29 04:40:00,
2013-01-28 22:45:00,44.6,44.6,29.62,ESE,117,8.1,8.1,100,0.08,,---,0.24,VWS V14.01,2013-01-29 04:45:00,
2013-01-28 22:51:00,44.6,44.6,29.59,SE,140,10.7,10.7,100,0.08,,---,0.24,VWS V14.01,2013-01-29 04:51:00,
2013-01-28 22:56:00,44.8,44.8,29.59,SE,140,10.7,10.7,100,0.08,,---,0.24,VWS V14.01,2013-01-29 04:56:00,
2013-01-28 23:03:00,45.1,45.1,29.59,SE,140,10.7,10.7,100,0.08,,---,0.24,VWS V14.01,2013-01-29 05:03:00,
2013-01-28 23:04:00,45.1,45.1,29.59,SE,140,10.7,10.7,100,0.08,,---,0.24,VWS V14.01,2013-01-29 05:04:00,
2013-01-28 23:06:00,45.1,45.1,29.59,SE,140,10.7,10.7,100,0.08,,---,0.24,VWS V14.01,2013-01-29 05:06:00,
2013-01-28 23:10:00,45.3,45.3,29.59,SE,133,10.7,10.7,100,0.08,,---,0.24,VWS V14.01,2013-01-29 05:10:00,
2013-01-28 23:15:00,45.3,45.3,29.59,SE,133,10.7,10.7,100,0.00,,---,0.24,VWS V14.01,2013-01-29 05:15:00,
2013-01-28 23:20:00,45.5,45.5,29.59,East,90,8.1,8.1,100,0.00,,---,0.24,VWS V14.01,2013-01-29 05:20:00,
2013-01-28 23:25:00,45.9,45.9,29.59,SE,135,6.7,6.7,100,0.00,,---,0.24,VWS V14.01,2013-01-29 05:25:00,
2013-01-28 23:30:00,46.0,46.0,29.59,SE,135,0.0,0.0,100,0.00,,---,0.24,VWS V14.01,2013-01-29 05:30:00,
2013-01-28 23:36:00,46.0,46.0,29.59,SE,129,10.7,10.7,100,0.00,,---,0.24,VWS V14.01,2013-01-29 05:36:00,
2013-01-28 23:42:00,46.0,46.0,29.59,ESE,115,8.1,8.1,100,0.00,,---,0.24,VWS V14.01,2013-01-29 05:42:00,
2013-01-28 23:47:00,46.0,46.0,29.59,ESE,117,13.4,13.4,100,0.00,,---,0.24,VWS V14.01,2013-01-29 05:47:00,
2013-01-28 23:52:00,46.4,46.4,29.59,SE,124,10.7,10.7,100,0.00,,---,0.24,VWS V14.01,2013-01-29 05:52:00,
2013-01-28 23:58:00,46.6,46.6,29.59,SE,134,0.0,6.7,100,0.00,,---,0.24,VWS V14.01,2013-01-29 05:58:00,